| time (UTC) | temp C | wind direction | speed KPH | gust KPH | rain 1hr cm | rain 24hr cm | rain mn cm | humidity % | barometer mb |
| 20260502194913 | 11 | 17 | 3.2 | 11.3 | 0.00 | 0.00 | 0.00 | 53 | 1015.3 |
| 20260502194412 | 11 | 26 | 4.8 | 8.0 | 0.00 | 0.00 | 0.00 | 51 | 1015.4 |
| 20260502193413 | 10 | 0 | 3.2 | 8.0 | 0.00 | 0.00 | 0.00 | 52 | 1015.5 |
| 20260502192913 | 10 | 351 | 3.2 | 9.7 | 0.00 | 0.00 | 0.00 | 54 | 1015.5 |
| 20260502192413 | 10 | 293 | 4.8 | 11.3 | 0.00 | 0.00 | 0.00 | 53 | 1015.5 |
| 20260502191912 | 10 | 297 | 4.8 | 12.9 | 0.00 | 0.00 | 0.00 | 50 | 1015.6 |
| 20260502191412 | 10 | 317 | 3.2 | 9.7 | 0.00 | 0.00 | 0.00 | 52 | 1015.7 |
| 20260502190912 | 10 | 282 | 3.2 | 9.7 | 0.00 | 0.00 | 0.00 | 50 | 1015.7 |
| 20260502190413 | 10 | 335 | 3.2 | 9.7 | 0.00 | 0.00 | 0.00 | 53 | 1015.8 |
| 20260502185413 | 10 | 29 | 4.8 | 8.0 | 0.00 | 0.00 | 0.00 | 52 | 1015.8 |
| 20260502184912 | 10 | 351 | 3.2 | 8.0 | 0.00 | 0.00 | 0.00 | 53 | 1015.8 |
| 20260502183912 | 10 | 278 | 3.2 | 8.0 | 0.00 | 0.00 | 0.00 | 53 | 1015.9 |
| 20260502183413 | 10 | 345 | 4.8 | 12.9 | 0.00 | 0.00 | 0.00 | 52 | 1015.9 |
| 20260502182912 | 10 | 293 | 3.2 | 12.9 | 0.00 | 0.00 | 0.00 | 55 | 1015.9 |
| 20260502181912 | 10 | 294 | 3.2 | 11.3 | 0.00 | 0.00 | 0.00 | 54 | 1016.0 |
| 20260502181412 | 10 | 6 | 3.2 | 8.0 | 0.00 | 0.00 | 0.00 | 54 | 1016.0 |
| 20260502180913 | 10 | 348 | 3.2 | 9.7 | 0.00 | 0.00 | 0.00 | 53 | 1016.1 |
| 20260502180413 | 10 | 5 | 3.2 | 8.0 | 0.00 | 0.00 | 0.00 | 54 | 1016.0 |
| 20260502170413 | 8 | 309 | 3.2 | 9.7 | 0.00 | 0.00 | 0.00 | 59 | 1016.5 |
| 20260502163413 | 8 | 21 | 4.8 | 9.7 | 0.00 | 0.00 | 0.00 | 62 | 1016.7 |
| 20260502162913 | 8 | 9 | 4.8 | 9.7 | 0.00 | 0.00 | 0.00 | 63 | 1016.7 |
| 20260502162413 | 8 | 8 | 4.8 | 9.7 | 0.00 | 0.00 | 0.00 | 64 | 1016.8 |
| 20260502161913 | 8 | 4 | 4.8 | 8.0 | 0.00 | 0.00 | 0.00 | 65 | 1016.8 |
| 20260502161413 | 8 | 12 | 4.8 | 8.0 | 0.00 | 0.00 | 0.00 | 63 | 1016.9 |
| 20260502160913 | 8 | 0 | 4.8 | 9.7 | 0.00 | 0.00 | 0.00 | 65 | 1017.0 |
| 20260502160413 | 8 | 3 | 4.8 | 8.0 | 0.00 | 0.00 | 0.00 | 65 | 1017.0 |
| 20260502151913 | 7 | 8 | 3.2 | 8.0 | 0.00 | 0.00 | 0.00 | 69 | 1017.1 |
| 20260502151413 | 7 | 352 | 4.8 | 8.0 | 0.00 | 0.00 | 0.00 | 69 | 1017.1 |
| 20260502150913 | 7 | 21 | 4.8 | 8.0 | 0.00 | 0.00 | 0.00 | 69 | 1017.1 |
| 20260502150413 | 7 | 30 | 4.8 | 12.9 | 0.00 | 0.00 | 0.00 | 70 | 1017.1 |
| 20260502130412 | 3 | 282 | 4.8 | 11.3 | 0.00 | 0.00 | 0.00 | 81 | 1017.6 |
| 20260502123412 | 2 | 220 | 3.2 | 9.7 | 0.00 | 0.00 | 0.00 | 82 | 1017.8 |
| 20260502122911 | 1 | 333 | 3.2 | 9.7 | 0.00 | 0.00 | 0.00 | 83 | 1017.8 |
| 20260502122413 | 1 | 166 | 3.2 | 8.0 | 0.00 | 0.00 | 0.00 | 84 | 1017.7 |
| 20260502121912 | 1 | 250 | 3.2 | 11.3 | 0.00 | 0.00 | 0.00 | 84 | 1017.7 |
| 20260502120913 | 0 | 190 | 3.2 | 8.0 | 0.00 | 0.03 | 0.00 | 86 | 1017.7 |
| 20260502120412 | 0 | 297 | 3.2 | 11.3 | 0.00 | 0.03 | 0.00 | 86 | 1017.7 |
| 20260502115912 | 0 | 271 | 3.2 | 9.7 | 0.00 | 0.03 | 0.00 | 87 | 1017.8 |
| 20260502115412 | 0 | 235 | 1.6 | 11.3 | 0.00 | 0.03 | 0.00 | 87 | 1017.7 |
| 20260502114912 | 0 | 221 | 4.8 | 9.7 | 0.00 | 0.03 | 0.00 | 87 | 1017.8 |
| 20260502114412 | 0 | 232 | 4.8 | 9.7 | 0.00 | 0.03 | 0.00 | 87 | 1017.8 |
| 20260502113912 | 0 | 228 | 3.2 | 8.0 | 0.00 | 0.03 | 0.00 | 87 | 1017.8 |
| 20260502113412 | 0 | 239 | 4.8 | 8.0 | 0.00 | 0.03 | 0.00 | 87 | 1017.7 |
| 20260502112912 | 0 | 229 | 3.2 | 9.7 | 0.00 | 0.03 | 0.00 | 88 | 1017.6 |
| 20260502112412 | 0 | 219 | 3.2 | 4.8 | 0.00 | 0.03 | 0.00 | 87 | 1017.6 |
| 20260502111412 | -1 | 203 | 4.8 | 8.0 | 0.00 | 0.03 | 0.00 | 88 | 1017.6 |
| 20260502110912 | -1 | 207 | 3.2 | 8.0 | 0.00 | 0.03 | 0.00 | 88 | 1017.7 |
| 20260502110413 | -1 | 217 | 4.8 | 9.7 | 0.00 | 0.03 | 0.00 | 88 | 1017.7 |
| 20260502105913 | -1 | 217 | 3.2 | 4.8 | 0.00 | 0.03 | 0.00 | 88 | 1017.7 |
| 20260502105413 | -1 | 215 | 4.8 | 8.0 | 0.00 | 0.03 | 0.00 | 89 | 1017.6 |
| 20260502104912 | -1 | 213 | 4.8 | 11.3 | 0.00 | 0.03 | 0.00 | 89 | 1017.6 |
| 20260502103912 | -1 | 232 | 4.8 | 11.3 | 0.00 | 0.03 | 0.00 | 89 | 1017.5 |
| 20260502103412 | -2 | 221 | 4.8 | 8.0 | 0.00 | 0.03 | 0.00 | 89 | 1017.6 |
| 20260502102912 | -2 | 211 | 3.2 | 4.8 | 0.00 | 0.03 | 0.00 | 88 | 1017.6 |
| 20260502101412 | -2 | 199 | 3.2 | 4.8 | 0.00 | 0.03 | 0.00 | 88 | 1017.5 |
| 20260502100913 | -2 | 193 | 3.2 | 4.8 | 0.00 | 0.03 | 0.00 | 88 | 1017.4 |
| 20260502100413 | -2 | 209 | 3.2 | 8.0 | 0.00 | 0.03 | 0.00 | 89 | 1017.4 |
| 20260502091412 | -2 | 192 | 3.2 | 4.8 | 0.00 | 0.03 | 0.00 | 88 | 1017.4 |
| 20260502090913 | -2 | 203 | 3.2 | 4.8 | 0.00 | 0.03 | 0.00 | 88 | 1017.4 |
| 20260502090413 | -2 | 203 | 3.2 | 4.8 | 0.00 | 0.03 | 0.00 | 88 | 1017.4 |
| 20260502071411 | 0 | 197 | 1.6 | 8.0 | 0.00 | 0.03 | 0.00 | 84 | 1017.2 |
| 20260502070913 | 0 | 172 | 3.2 | 9.7 | 0.00 | 0.03 | 0.00 | 84 | 1017.2 |
| 20260502065911 | 0 | 229 | 1.6 | 4.8 | 0.00 | 0.03 | 0.00 | 84 | 1017.2 |
| 20260502064912 | 0 | 199 | 1.6 | 4.8 | 0.00 | 0.03 | 0.00 | 83 | 1017.2 |
| 20260502064412 | 0 | 280 | 3.2 | 8.0 | 0.00 | 0.03 | 0.00 | 83 | 1017.3 |
| 20260502063912 | 0 | 172 | 1.6 | 4.8 | 0.00 | 0.03 | 0.00 | 83 | 1017.3 |
| 20260502063414 | 0 | 159 | 3.2 | 4.8 | 0.00 | 0.03 | 0.00 | 83 | 1017.3 |
| 20260502062911 | 0 | 214 | 1.6 | 4.8 | 0.00 | 0.03 | 0.00 | 83 | 1017.3 |
| 20260502062412 | 0 | 176 | 3.2 | 9.7 | 0.00 | 0.03 | 0.00 | 83 | 1017.4 |
| 20260502061913 | 0 | 221 | 3.2 | 4.8 | 0.00 | 0.03 | 0.00 | 83 | 1017.4 |
| 20260502060912 | 0 | 214 | 0.0 | 4.8 | 0.00 | 0.03 | 0.00 | 82 | 1017.4 |
| 20260502060412 | 0 | 193 | 1.6 | 4.8 | 0.00 | 0.03 | 0.00 | 82 | 1017.5 |
| 20260502055412 | 0 | 217 | 1.6 | 4.8 | 0.00 | 0.03 | 0.00 | 81 | 1017.5 |
| 20260502054912 | 0 | 222 | 1.6 | 4.8 | 0.00 | 0.03 | 0.00 | 81 | 1017.5 |
| 20260502054411 | 0 | 298 | 1.6 | 4.8 | 0.00 | 0.03 | 0.00 | 81 | 1017.5 |
| 20260502053912 | 0 | 271 | 1.6 | 4.8 | 0.00 | 0.03 | 0.00 | 81 | 1017.6 |
| 20260502053413 | 0 | 330 | 1.6 | 8.0 | 0.00 | 0.03 | 0.00 | 81 | 1017.5 |
| 20260502052911 | 0 | 289 | 1.6 | 4.8 | 0.00 | 0.03 | 0.00 | 80 | 1017.6 |
| 20260502052412 | 0 | 254 | 1.6 | 4.8 | 0.00 | 0.03 | 0.00 | 80 | 1017.6 |
| 20260502051912 | 1 | 52 | 1.6 | 4.8 | 0.00 | 0.03 | 0.00 | 80 | 1017.6 |
| 20260502051411 | 1 | 328 | 1.6 | 4.8 | 0.00 | 0.03 | 0.00 | 80 | 1017.6 |
| 20260502050912 | 1 | 330 | 1.6 | 4.8 | 0.00 | 0.03 | 0.00 | 80 | 1017.6 |
| 20260502050412 | 1 | 14 | 3.2 | 8.0 | 0.00 | 0.03 | 0.00 | 80 | 1017.5 |
| 20260502045912 | 1 | 22 | 1.6 | 8.0 | 0.00 | 0.03 | 0.00 | 80 | 1017.5 |
| 20260502045412 | 1 | 305 | 4.8 | 11.3 | 0.00 | 0.03 | 0.00 | 80 | 1017.5 |
| 20260502044911 | 1 | 308 | 1.6 | 4.8 | 0.00 | 0.03 | 0.00 | 80 | 1017.5 |
| 20260502043912 | 1 | 345 | 1.6 | 4.8 | 0.00 | 0.03 | 0.00 | 79 | 1017.6 |
| 20260502043412 | 1 | 199 | 1.6 | 4.8 | 0.00 | 0.03 | 0.00 | 78 | 1017.6 |
| 20260502042913 | 2 | 55 | 0.0 | 3.2 | 0.00 | 0.03 | 0.00 | 78 | 1017.6 |
| 20260502042411 | 2 | 34 | 1.6 | 4.8 | 0.00 | 0.03 | 0.00 | 78 | 1017.6 |
| 20260502041912 | 2 | 330 | 1.6 | 4.8 | 0.00 | 0.03 | 0.00 | 77 | 1017.6 |
| 20260502041411 | 2 | 315 | 3.2 | 4.8 | 0.00 | 0.03 | 0.00 | 77 | 1017.6 |
| 20260502040911 | 2 | 345 | 3.2 | 9.7 | 0.00 | 0.03 | 0.00 | 78 | 1017.6 |
| 20260502040412 | 2 | 344 | 4.8 | 14.5 | 0.00 | 0.03 | 0.00 | 78 | 1017.6 |
| 20260502035912 | 2 | 355 | 4.8 | 11.3 | 0.00 | 0.03 | 0.03 | 77 | 1017.6 |
| 20260502035412 | 2 | 336 | 6.4 | 12.9 | 0.00 | 0.03 | 0.03 | 77 | 1017.6 |
| 20260502034912 | 2 | 321 | 4.8 | 11.3 | 0.00 | 0.03 | 0.03 | 77 | 1017.6 |
| 20260502034412 | 2 | 340 | 3.2 | 8.0 | 0.00 | 0.03 | 0.03 | 77 | 1017.6 |
| 20260502033912 | 2 | 335 | 4.8 | 11.3 | 0.00 | 0.05 | 0.03 | 77 | 1017.6 |
| 20260502033412 | 2 | 339 | 4.8 | 11.3 | 0.00 | 0.05 | 0.03 | 76 | 1017.6 |
| 20260502032912 | 2 | 334 | 6.4 | 12.9 | 0.00 | 0.05 | 0.03 | 76 | 1017.6 |
| 20260502032412 | 2 | 342 | 4.8 | 9.7 | 0.00 | 0.05 | 0.03 | 76 | 1017.6 |
| 20260502031911 | 2 | 337 | 4.8 | 12.9 | 0.00 | 0.05 | 0.03 | 75 | 1017.6 |
| 20260502031411 | 3 | 338 | 4.8 | 8.0 | 0.00 | 0.05 | 0.03 | 74 | 1017.6 |
| 20260502030912 | 3 | 333 | 3.2 | 8.0 | 0.00 | 0.05 | 0.03 | 74 | 1017.6 |
| 20260502030412 | 3 | 347 | 3.2 | 9.7 | 0.00 | 0.05 | 0.03 | 73 | 1017.6 |
| 20260502025912 | 3 | 338 | 3.2 | 9.7 | 0.00 | 0.05 | 0.03 | 73 | 1017.6 |
| 20260502025412 | 3 | 338 | 3.2 | 9.7 | 0.00 | 0.05 | 0.03 | 73 | 1017.6 |
| 20260502024912 | 3 | 347 | 3.2 | 8.0 | 0.00 | 0.05 | 0.03 | 74 | 1017.6 |
| 20260502024411 | 3 | 352 | 3.2 | 4.8 | 0.00 | 0.05 | 0.03 | 73 | 1017.6 |
| 20260502023912 | 3 | 354 | 4.8 | 9.7 | 0.00 | 0.05 | 0.03 | 72 | 1017.6 |
| 20260502023411 | 3 | 342 | 3.2 | 9.7 | 0.00 | 0.05 | 0.03 | 76 | 1017.6 |
| 20260502022912 | 3 | 1 | 1.6 | 4.8 | 0.00 | 0.05 | 0.03 | 75 | 1017.6 |
| 20260502022411 | 3 | 25 | 3.2 | 4.8 | 0.00 | 0.05 | 0.03 | 76 | 1017.6 |
| 20260502021911 | 3 | 24 | 3.2 | 4.8 | 0.00 | 0.05 | 0.03 | 77 | 1017.6 |
| 20260502021412 | 3 | 21 | 3.2 | 4.8 | 0.00 | 0.05 | 0.03 | 77 | 1017.7 |
| 20260502020912 | 3 | 20 | 3.2 | 4.8 | 0.00 | 0.05 | 0.03 | 76 | 1017.6 |
| 20260502020412 | 3 | 1 | 1.6 | 4.8 | 0.00 | 0.05 | 0.03 | 75 | 1017.6 |
| 20260502015911 | 3 | 348 | 1.6 | 4.8 | 0.00 | 0.05 | 0.03 | 77 | 1017.6 |
| 20260502014911 | 3 | 18 | 1.6 | 4.8 | 0.00 | 0.05 | 0.03 | 76 | 1017.6 |
| 20260502014412 | 3 | 21 | 3.2 | 4.8 | 0.00 | 0.05 | 0.03 | 74 | 1017.6 |
| 20260502013912 | 3 | 13 | 3.2 | 4.8 | 0.00 | 0.05 | 0.03 | 75 | 1017.5 |
| 20260502013412 | 3 | 20 | 3.2 | 4.8 | 0.00 | 0.05 | 0.03 | 75 | 1017.5 |
| 20260502012912 | 3 | 14 | 3.2 | 4.8 | 0.00 | 0.05 | 0.03 | 75 | 1017.4 |
| 20260502012412 | 3 | 23 | 3.2 | 4.8 | 0.00 | 0.05 | 0.03 | 73 | 1017.3 |
| 20260502011911 | 4 | 21 | 3.2 | 4.8 | 0.00 | 0.05 | 0.03 | 72 | 1017.3 |
| 20260502011412 | 4 | 13 | 3.2 | 4.8 | 0.00 | 0.05 | 0.03 | 72 | 1017.3 |
| 20260502010911 | 4 | 9 | 4.8 | 8.0 | 0.00 | 0.05 | 0.03 | 70 | 1017.3 |
| 20260502010412 | 4 | 13 | 4.8 | 8.0 | 0.00 | 0.05 | 0.03 | 68 | 1017.2 |
| 20260502005911 | 4 | 344 | 3.2 | 9.7 | 0.00 | 0.05 | 0.03 | 69 | 1017.2 |
| 20260502005411 | 4 | 346 | 3.2 | 9.7 | 0.00 | 0.05 | 0.03 | 68 | 1017.1 |
| 20260502004911 | 4 | 345 | 4.8 | 11.3 | 0.00 | 0.05 | 0.03 | 66 | 1017.1 |
| 20260502003911 | 4 | 341 | 4.8 | 11.3 | 0.00 | 0.05 | 0.03 | 70 | 1017.0 |
| 20260502003412 | 4 | 350 | 4.8 | 11.3 | 0.00 | 0.05 | 0.03 | 69 | 1017.0 |
| 20260502002411 | 4 | 342 | 3.2 | 11.3 | 0.00 | 0.05 | 0.03 | 67 | 1017.0 |
| 20260502001912 | 4 | 347 | 4.8 | 11.3 | 0.00 | 0.05 | 0.03 | 68 | 1017.0 |
| 20260502001412 | 4 | 328 | 4.8 | 14.5 | 0.00 | 0.05 | 0.03 | 68 | 1016.9 |
| 20260502000911 | 4 | 343 | 3.2 | 4.8 | 0.00 | 0.05 | 0.03 | 68 | 1016.9 |
| 20260502000412 | 4 | 339 | 3.2 | 4.8 | 0.00 | 0.05 | 0.03 | 69 | 1016.7 |
| 20260501235911 | 4 | 359 | 3.2 | 4.8 | 0.00 | 0.05 | 0.03 | 69 | 1016.7 |
| 20260501234912 | 5 | 0 | 3.2 | 14.5 | 0.00 | 0.05 | 0.03 | 70 | 1016.8 |
| 20260501234411 | 5 | 6 | 3.2 | 9.7 | 0.00 | 0.05 | 0.03 | 74 | 1016.7 |
| 20260501233911 | 5 | 326 | 1.6 | 4.8 | 0.00 | 0.05 | 0.03 | 72 | 1016.7 |
| 20260501233412 | 5 | 339 | 3.2 | 4.8 | 0.00 | 0.05 | 0.03 | 74 | 1016.7 |
| 20260501232911 | 5 | 343 | 1.6 | 4.8 | 0.00 | 0.05 | 0.03 | 72 | 1016.7 |
| 20260501232412 | 5 | 335 | 1.6 | 4.8 | 0.00 | 0.05 | 0.03 | 72 | 1016.6 |
| 20260501231412 | 5 | 1 | 3.2 | 4.8 | 0.00 | 0.05 | 0.03 | 74 | 1016.7 |
| 20260501230913 | 5 | 326 | 1.6 | 4.8 | 0.00 | 0.05 | 0.03 | 76 | 1016.7 |
| 20260501230411 | 5 | 315 | 1.6 | 4.8 | 0.00 | 0.05 | 0.03 | 75 | 1016.7 |
| 20260501225911 | 5 | 297 | 1.6 | 8.0 | 0.00 | 0.05 | 0.03 | 76 | 1016.7 |
| 20260501225412 | 5 | 345 | 1.6 | 4.8 | 0.00 | 0.05 | 0.03 | 76 | 1016.6 |
| 20260501224411 | 5 | 353 | 3.2 | 4.8 | 0.00 | 0.05 | 0.03 | 75 | 1016.6 |
| 20260501223911 | 5 | 343 | 3.2 | 4.8 | 0.00 | 0.05 | 0.03 | 72 | 1016.5 |
| 20260501223411 | 5 | 343 | 3.2 | 4.8 | 0.00 | 0.05 | 0.03 | 74 | 1016.5 |
| 20260501222412 | 5 | 350 | 4.8 | 9.7 | 0.00 | 0.05 | 0.03 | 72 | 1016.5 |
| 20260501221412 | 5 | 336 | 3.2 | 4.8 | 0.00 | 0.05 | 0.03 | 63 | 1016.3 |
| 20260501220911 | 5 | 336 | 4.8 | 4.8 | 0.00 | 0.05 | 0.03 | 61 | 1016.3 |
| 20260501215911 | 5 | 336 | 4.8 | 11.3 | 0.00 | 0.05 | 0.03 | 63 | 1016.2 |
| 20260501215411 | 5 | 339 | 6.4 | 16.1 | 0.00 | 0.05 | 0.03 | 70 | 1016.3 |
| 20260501214912 | 5 | 4 | 4.8 | 8.0 | 0.00 | 0.05 | 0.03 | 71 | 1016.1 |
| 20260501214411 | 5 | 326 | 3.2 | 8.0 | 0.00 | 0.05 | 0.03 | 70 | 1016.1 |
| 20260501213912 | 5 | 65 | 1.6 | 4.8 | 0.00 | 0.05 | 0.03 | 69 | 1016.0 |
| 20260501213410 | 5 | 293 | 3.2 | 8.0 | 0.00 | 0.05 | 0.03 | 69 | 1015.9 |
| 20260501212911 | 5 | 342 | 3.2 | 9.7 | 0.00 | 0.05 | 0.03 | 68 | 1015.9 |
| 20260501212411 | 6 | 312 | 1.6 | 8.0 | 0.00 | 0.05 | 0.03 | 70 | 1015.9 |
| 20260501211912 | 6 | 304 | 3.2 | 4.8 | 0.00 | 0.08 | 0.03 | 70 | 1015.8 |
| 20260501211411 | 6 | 294 | 3.2 | 4.8 | 0.00 | 0.08 | 0.03 | 71 | 1015.9 |
| 20260501210911 | 6 | 329 | 3.2 | 9.7 | 0.00 | 0.08 | 0.03 | 70 | 1015.8 |
| 20260501205411 | 6 | 17 | 3.2 | 4.8 | 0.00 | 0.08 | 0.03 | 69 | 1015.8 |
| 20260501204911 | 6 | 332 | 3.2 | 11.3 | 0.00 | 0.08 | 0.03 | 68 | 1015.7 |
| 20260501203912 | 6 | 321 | 3.2 | 9.7 | 0.00 | 0.08 | 0.03 | 67 | 1015.8 |
| 20260501203413 | 6 | 349 | 1.6 | 8.0 | 0.00 | 0.08 | 0.03 | 68 | 1015.8 |
| 20260501202911 | 6 | 353 | 3.2 | 4.8 | 0.00 | 0.08 | 0.03 | 68 | 1015.8 |
| 20260501202411 | 6 | 306 | 3.2 | 4.8 | 0.00 | 0.08 | 0.03 | 70 | 1015.8 |
| 20260501201411 | 6 | 330 | 3.2 | 11.3 | 0.00 | 0.08 | 0.03 | 69 | 1015.8 |
| 20260501200911 | 6 | 338 | 3.2 | 4.8 | 0.00 | 0.08 | 0.03 | 69 | 1015.8 |
| 20260501200413 | 6 | 8 | 3.2 | 8.0 | 0.00 | 0.08 | 0.03 | 69 | 1015.9 |
| 20260501195911 | 6 | 332 | 3.2 | 8.0 | 0.00 | 0.08 | 0.03 | 69 | 1015.8 |
| 20260501195411 | 6 | 335 | 3.2 | 8.0 | 0.00 | 0.08 | 0.03 | 67 | 1015.8 |